WESTFORD NEEDLES, 2381

Orbit data source: Space-Track

WESTFORD NEEDLES, 2381 is space debris in LEO originally from a launch on Thu, 09 May 1963 UTC launched from the Air Force Western Test Range (AFWTR). Debris objects in space refer to the collection of defunct objects orbiting the Earth. Examples of debris include non-operational satellites, rocket bodies, and fragments generated from explosions, collisions, or faulty payload assembly.

Loading next visibility...
Identifier
2381, 1963-014AB
Orbit
LEO
Country
Flag of USUS
Related business
Manufacturer
Unknown
Mission
Spacecraft
Bus & Motor
Unknown
Mass
Unknown
Launch date (UTC)
1963-05-09 (63 years ago)
Launch vehicle
Unknown
Launch site
Air Force Western Test Range (AFWTR)
Object type
Payload
Rocket body
Debris
Shape & HBR
Unknown shape, 0.3 m
Radar Cross Section
Medium (>0.1 m² and <1 m²)

Expand to show TLE details & history
Last TLE update: 3 days ago

TLE from 3 days ago
0 WESTFORD NEEDLES
1 02381U 63014AB  26034.60394701 -.00000049  00000-0 -23296-1 0  9991
2 02381  87.2890 110.4872 0204027   7.4445 352.9369  8.67424439379689
Epoch: 2026-02-03T14:29Z
TLE epoch observation values (Epoch: 2026-02-03T14:29:41.021Z)
Latitude
Longitude
119.28378°
Altitude
3,427.2 km
Speed
6.441 km/s
True Right ascension
07h 21m 56s
True Declination
0° 00' 00"
Sunlit
Object was in full shadow at epoch
Visualization orbit readout
Latitude
Unknown
Longitude
Unknown
Altitude
Unknown
Speed
Unknown
Apparent Right ascension
Unknown
Apparent Declination
Unknown
Sunlit
N/A
Visualization observer readout
Local Sidereal Time
18:32:57
Azimuth
Unknown
Elevation
Unknown
Doppler factor
Unknown
Orbital elements
Apogee altitude
3,829.479 km
Perigee altitude
3,421.282 km
Semi-major axis
10,003.517 km
Eccentricity
0.0204
Inclination
87.289°
RAAN
110.4872°
Arg. of periapsis
7.4445°
True anomaly
352.64196°
Mean anomaly
352.9369°
Eccentric anomaly
352.79019°
Mean motion
2.16927 °/min
Orbital period
165.95 mins
BSTAR
-0.023296
Loading maneuver chart data...
Computing Atmospheric mass density...

Documentation

Showing up to 5 results
|